This is the latest recevied weather packets stored in our database for station/object KR8N. If no packets are shown the sender has not sent any weather packets the latest 1 day(s).
| Time | Temp. | Humidity | Pressure | Rain* | Wind** | Luminosity | Snow |
|---|---|---|---|---|---|---|---|
| 1778031783 | 18.33° C | 46% | 1013.8 hPa | 0 mm | 0 m/s | 0 W/m² | - |
| 1778031480 | 18.33° C | 46% | 1013.9 hPa | 0 mm | 0.45 m/s, 108° | 0 W/m² | - |
| 1778031177 | 18.33° C | 46% | 1013.7 hPa | 0 mm | 0.45 m/s, 102° | 0 W/m² | - |
| 1778030873 | 18.33° C | 46% | 1013.8 hPa | 0 mm | 0 m/s | 0 W/m² | - |
| 1778030570 | 18.33° C | 46% | 1013.7 hPa | 0 mm | 0 m/s | 0 W/m² | - |
| 1778030268 | 18.33° C | 45% | 1013.7 hPa | 0 mm | 0 m/s | 0 W/m² | - |
| 1778029964 | 18.89° C | 46% | 1013.6 hPa | 0 mm | 0 m/s | 0 W/m² | - |
| 1778029662 | 18.89° C | 42% | 1013.8 hPa | 0 mm | 0 m/s | 0 W/m² | - |
| 1778029359 | 18.89° C | 42% | 1013.8 hPa | 0 mm | 0 m/s | 0 W/m² | - |
| 1778029057 | 19.44° C | 42% | 1013.8 hPa | 0 mm | 0 m/s | 0 W/m² | - |
| 1778028753 | 19.44° C | 41% | 1013.7 hPa | 0 mm | 0 m/s | 0 W/m² | - |
| 1778028449 | 18.89° C | 42% | 1013.9 hPa | 0 mm | 0 m/s | 0 W/m² | - |
| 1778028147 | 18.89° C | 44% | 1013.8 hPa | 0 mm | 0 m/s | 0 W/m² | - |
| 1778027842 | 19.44° C | 41% | 1014.1 hPa | 0 mm | 0 m/s | 0 W/m² | - |
| 1778027539 | 18.89° C | 41% | 1014 hPa | 0 mm | 0 m/s | 0 W/m² | - |
| 1778027235 | 18.89° C | 40% | 1014.1 hPa | 0 mm | 0 m/s | 0 W/m² | - |
| 1778026932 | 19.44° C | 42% | 1014.2 hPa | 0 mm | 0 m/s | 0 W/m² | - |
| 1778026627 | 19.44° C | 39% | 1014.1 hPa | 0 mm | 0 m/s | 1 W/m² | - |
| 1778026325 | 20° C | 41% | 1013.9 hPa | 0 mm | 0.45 m/s, 107° | 1 W/m² | - |
| 1778026022 | 20° C | 37% | 1013.9 hPa | 0 mm | 0 m/s | 2 W/m² | - |
| 1778025720 | 20° C | 39% | 1014.2 hPa | 0 mm | 0.45 m/s, 91° | 2 W/m² | - |
| 1778025417 | 20° C | 38% | 1013.8 hPa | 0 mm | 0 m/s | 3 W/m² | - |
| 1778025115 | 20° C | 37% | 1014 hPa | 0 mm | 0 m/s | 5 W/m² | - |
| 1778024811 | 20.56° C | 38% | 1013.9 hPa | 0 mm | 0 m/s | 8 W/m² | - |
| 1778024508 | 20.56° C | 37% | 1013.8 hPa | 0 mm | 0 m/s | 12 W/m² | - |
* Rain latest hour (hover to see other rain measurements)
** Current wind speed in m/s (hover to see current wind gust speed)